Weather History for Bartlesville, OK

Change the Weather History Date:

Wednesday, November 13, 2013

  Actual Average Record
Temperature  
Mean Temperature 34 °F -  
Max Temperature 51 °F 61 °F 84 °F (1999)
Min Temperature 17 °F 36 °F 11 °F (1986)
Degree Days  
Heating Degree Days 31    
Moisture  
Dew Point 19 °F    
Average Humidity 59    
Maximum Humidity 92    
Minimum Humidity 24    
Precipitation  
Precipitation 0.00 in - - ()
Sea Level Pressure  
Sea Level Pressure 30.53 in    
Wind  
Wind Speed 3 mph (South)    
Max Wind Speed 13 mph    
Max Gust Speed 18 mph    
Visibility 10 miles    
Events      
Averages and records for this station are not official NWS values.
T = Trace of Precipitation, MM = Missing Value Source: NWS Daily Summary

Daily Weather History Graph

Daily Weather History Graph

Search for Another Location

Airport:

Trip Planner

Search our weather history database for the weather conditions in past years. The results will help you decide how hot, cold, wet, or windy it might be!

Date:

Astronomy

Nov. 13, 2013 Rise Set
Actual Time 7:00 AM CST 5:16 PM CST
Civil Twilight 6:32 AM CST 5:43 PM CST
Nautical Twilight 6:01 AM CST 6:14 PM CST
Astronomical Twilight 5:31 AM CST 6:45 PM CST
Moon 2:59 PM CST (11/13) 3:00 AM CST (11/13)
Length of Visible Light 11h 10m
Length of Day
10h 15m
Waxing Gibbous, 85% of the Moon is Illuminated
Nov 13
Waxing Gibbous
Nov 17
Full
Nov 25
Last Quarter
Dec 2
New
Dec 9
First Quarter

Hourly Weather History & Observations

Time (CST) Temp. Windchill Dew Point Humidity Pressure Visibility Wind Dir Wind Speed Gust Speed Precip Events Conditions
12:53 AM 19.9 °F - 17.1 °F 89% 30.74 in 10.0 mi Calm Calm - N/A   Clear
1:53 AM 19.0 °F - 17.1 °F 92% 30.74 in 10.0 mi Calm Calm - N/A   Clear
2:53 AM 18.0 °F - 15.1 °F 88% 30.72 in 10.0 mi Calm Calm - N/A   Clear
3:53 AM 18.0 °F - 16.0 °F 92% 30.71 in 10.0 mi Calm Calm - N/A   Clear
4:53 AM 18.0 °F - 15.1 °F 88% 30.70 in 10.0 mi Calm Calm - N/A   Clear
5:53 AM 17.1 °F - 15.1 °F 92% 30.69 in 10.0 mi Calm Calm - N/A   Clear
6:53 AM 18.0 °F - 15.1 °F 88% 30.69 in 10.0 mi Calm Calm - N/A   Clear
7:53 AM 23.0 °F - 19.9 °F 88% 30.68 in 10.0 mi Calm Calm - N/A   Clear
8:53 AM 30.0 °F 25.2 °F 25.0 °F 82% 30.68 in 10.0 mi South 4.6 mph - N/A   Clear
9:53 AM 37.0 °F 29.3 °F 21.9 °F 54% 30.64 in 10.0 mi SSW 11.5 mph - N/A   Clear
10:53 AM 42.1 °F 36.6 °F 19.9 °F 41% 30.61 in 10.0 mi South 9.2 mph - N/A   Clear
11:53 AM 46.0 °F 41.9 °F 17.1 °F 31% 30.57 in 10.0 mi South 8.1 mph - N/A   Clear
12:53 PM 48.9 °F - 15.1 °F 26% 30.53 in 10.0 mi SSW 9.2 mph - N/A   Clear
1:53 PM 50.0 °F - 16.0 °F 26% 30.48 in 10.0 mi SSW 10.4 mph - N/A   Clear
2:53 PM 51.1 °F - 15.1 °F 24% 30.44 in 10.0 mi SSW 12.7 mph 18.4 mph N/A   Clear
3:53 PM 51.1 °F - 19.9 °F 29% 30.41 in 10.0 mi South 9.2 mph - N/A   Clear
4:53 PM 48.0 °F - 19.9 °F 33% 30.38 in 10.0 mi South 9.2 mph - N/A   Clear
5:53 PM 42.1 °F 39.2 °F 19.9 °F 41% 30.37 in 10.0 mi SSW 4.6 mph - N/A   Clear
6:53 PM 42.1 °F 37.7 °F 19.9 °F 41% 30.36 in 10.0 mi South 6.9 mph - N/A   Clear
7:53 PM 41.0 °F 35.8 °F 19.9 °F 43% 30.35 in 10.0 mi South 8.1 mph - N/A   Clear
8:53 PM 39.0 °F 34.8 °F 21.0 °F 49% 30.34 in 10.0 mi South 5.8 mph - N/A   Clear
9:53 PM 37.0 °F 32.4 °F 21.9 °F 54% 30.33 in 10.0 mi South 5.8 mph - N/A   Clear
10:53 PM 36.0 °F 31.1 °F 23.0 °F 59% 30.32 in 10.0 mi South 5.8 mph - N/A   Clear
11:53 PM 35.1 °F 31.0 °F 24.1 °F 64% 30.30 in 10.0 mi South 4.6 mph - N/A   Clear